Location: Feydey
(46.3431°N, 7.0106°E)
Time: 07:02:50
(UTC+00:00)

SL-4 R/B - Pass Details

Date: 20 June 2021
Orbit: 428 x 662 km, 51.6° (Epoch: 04 August)

Event Time Altitude Azimuth Distance (km) Brightness Sun altitude
Rises 21:52:53 0° 232° (SW) 2,767 5.5 -16.6°
Reaches altitude 10° 21:55:13 10° 229° (SW) 1,830 4.5 -16.7°
Maximum altitude 21:59:20 64° 148° (SSE) 581 1.8 -17.0°
Drops below altitude 10° 22:03:08 10° 67° (ENE) 1,696 4.5 -17.3°
Sets 22:05:14 0° 64° (ENE) 2,543 5.5 -17.4°
